Theta_e
315 314 313 312 310 310 311 312 312 312 315 316 318 322 321 320 319 318 317 317 319 320 321 322 322 323 323 325 325 323 322 323 322 324 325 323 322 323 324 324 325 326 326
313 313 312 310 308 307 309 310 309 315 318 319 319 318 318 318 318 318 317 316 316 317 316 317 318 319 321 320 320 319 318 320 320 321 321 321 319 320 322 321 322 323 323
313 312 311 309 307 304 306 307 308 314 318 317 315 316 317 317 317 317 316 316 314 310 307 308 312 314 315 318 318 316 316 316 316 317 317 317 317 317 318 319 319 320 323
310 311 310 307 304 302 301 302 304 312 316 313 315 315 316 317 315 313 312 311 311 308 306 301 299 301 309 312 313 313 313 312 313 314 314 314 313 314 316 317 317 318 321
308 308 307 304 302 301 299 301 302 311 314 315 315 314 315 315 313 311 310 309 307 305 303 302 301 301 300 308 310 311 311 311 311 311 311 312 311 311 313 314 315 315 317
306 306 304 303 300 300 299 299 300 304 310 312 313 314 313 315 312 311 309 308 306 305 303 301 301 301 301 300 301 306 308 309 309 309 310 310 310 309 309 310 311 313 313
305 304 303 301 299 299 298 298 299 300 302 302 307 311 314 312 313 310 308 307 306 305 304 302 300 300 301 300 300 298 300 305 306 307 308 308 309 309 308 308 309 309 310
304 302 301 299 298 299 299 298 298 299 301 300 301 303 305 311 311 311 308 306 305 304 303 302 301 299 298 300 300 298 297 297 303 305 306 307 307 308 308 308 307 307 308
305 302 301 300 299 298 298 298 297 298 298 300 299 300 301 303 301 310 309 307 305 304 303 303 301 299 298 298 299 299 298 296 295 302 303 305 306 307 307 307 306 306 306
307 305 303 302 300 298 298 298 297 296 297 298 299 299 299 300 299 298 305 305 305 304 304 303 301 299 298 298 298 299 298 295 294 299 301 303 305 306 306 306 305 304 304
309 307 305 303 302 300 299 298 297 298 298 297 297 298 299 299 299 299 297 299 302 304 302 301 300 298 298 298 298 297 297 297 295 297 299 301 303 305 305 304 303 303 303
309 308 307 305 303 302 301 299 298 298 297 297 297 297 297 298 299 298 297 297 298 299 299 299 298 298 297 298 298 298 297 297 295 294 297 299 301 303 303 302 302 302 302
308 308 307 306 305 304 303 302 300 298 298 298 297 297 298 298 297 297 297 296 296 297 298 298 298 297 297 297 297 298 297 296 294 296 297 298 299 300 300 300 300 300 301
308 307 307 306 305 304 304 303 301 300 299 298 298 298 297 297 297 297 297 297 294 295 297 297 298 298 297 297 297 297 296 295 295 295 297 297 297 297 297 297 298 299 299
308 307 306 305 305 304 304 303 302 302 300 300 299 299 298 298 297 297 297 297 296 294 293 297 298 299 298 297 297 296 296 295 294 294 296 296 295 294 295 295 296 297 297
308 307 306 306 305 305 304 304 303 303 302 302 301 300 299 299 298 298 297 297 296 296 295 296 297 297 297 297 296 296 296 295 294 295 296 296 295 295 295 294 295 295 297
306 305 305 304 304 304 303 303 303 303 303 303 302 301 301 300 299 298 298 297 296 296 295 296 296 296 296 296 296 295 295 295 295 294 293 295 295 295 295 294 294 295 296
302 302 302 301 301 301 301 301 301 301 301 301 301 301 301 301 301 300 299 297 297 296 296 295 296 295 296 296 296 296 295 295 294 294 294 294 295 295 295 294 294 295 295
300 300 300 300 299 299 299 299 299 299 299 299 299 299 299 299 300 300 300 299 298 297 296 295 295 295 295 295 296 296 296 295 294 294 293 294 294 294 294 294 294 294 295
297 296 295 295 295 295 295 295 296 297 295 293 293 295 297 299 299 299 299 299 299 298 296 295 295 295 295 295 295 295 295 294 294 294 293 293 293 293 293 294 294 294 294
294 294 293 293 293 293 293 294 294 293 292 292 293 293 294 296 297 298 299 298 298 297 296 296 295 296 295 294 294 294 294 294 293 293 293 292 292 292 292 292 293 293 293
293 293 293 293 293 293 292 292 293 292 292 292 293 293 294 295 295 296 296 297 298 298 297 295 295 295 296 296 296 295 295 294 293 292 292 292 292 291 292 291 292 291 290
293 292 292 292 292 292 291 291 292 292 292 291 293 293 293 293 293 294 294 294 295 295 296 297 296 295 295 294 295 295 295 294 294 294 293 291 291 291 292 292 291 291 291
292 292 292 291 291 290 290 290 290 290 291 290 291 292 293 293 293 293 293 294 294 294 293 293 294 294 294 293 294 294 294 294 294 293 292 292 292 291 292 292 291 291 291
291 291 291 290 290 290 290 290 290 290 290 290 290 291 292 293 292 293 294 293 293 292 292 292 292 292 292 293 293 294 295 294 293 292 292 291 292 291 291 290 290 291 291
291 291 291 290 290 290 290 290 290 290 291 291 291 291 291 291 292 292 292 291 291 290 290 290 291 291 291 291 292 293 293 294 293 292 292 291 292 291 289 290 290 290 290
Wind_Speed
5 7 6 6 7 6 8 7 7 6 8 6 2 7 7 8 5 4 4 3 5 6 8 8 9 8 6 9 11 9 9 9 7 11 10 8 8 10 12 11 13 15 15
6 4 5 5 5 5 7 7 7 7 5 4 3 3 5 3 2 2 1 3 4 4 6 9 10 9 8 6 7 9 9 8 7 6 7 8 6 6 10 10 12 12 12
5 5 4 3 4 5 4 6 4 6 1 5 5 3 3 1 1 1 3 4 5 5 5 5 9 9 10 9 8 7 8 9 7 6 6 8 6 7 8 8 8 11 14
5 4 3 4 5 5 5 6 5 6 3 4 2 2 2 1 1 3 3 4 3 4 5 5 5 5 8 8 8 7 8 8 8 9 8 8 9 8 8 8 9 9 13
5 3 1 3 5 5 5 5 5 3 4 3 1 2 3 1 2 2 3 3 2 2 5 7 7 6 5 7 7 6 6 6 7 8 7 7 8 10 8 8 10 10 11
4 4 2 4 3 3 4 4 3 4 3 4 6 6 5 4 7 5 4 4 6 4 4 5 6 7 7 5 3 3 4 4 5 6 6 7 6 7 9 10 8 10 11
2 3 1 2 2 4 5 6 5 5 4 6 7 8 14 10 10 8 8 6 7 7 8 7 6 6 6 8 5 5 3 2 3 4 4 4 4 4 5 7 9 9 10
1 1 1 2 3 2 5 5 6 5 4 6 4 6 3 3 10 12 10 9 9 11 11 11 9 9 9 9 12 9 7 5 4 5 6 6 6 5 6 6 7 7 7
2 2 2 2 3 3 3 5 5 4 4 3 4 1 3 2 6 7 13 12 11 13 11 12 14 12 12 11 12 12 10 8 7 5 6 6 6 6 6 7 8 8 8
4 4 5 5 4 4 3 4 5 4 4 4 4 2 5 4 1 4 5 11 13 14 13 14 16 15 16 15 15 15 16 14 10 7 7 8 7 7 7 7 8 8 9
6 6 7 7 7 6 5 6 7 6 6 7 5 4 4 9 11 7 4 5 8 13 18 16 17 17 17 18 17 18 17 15 13 10 9 9 9 8 8 8 8 9 9
6 8 8 9 9 8 9 9 9 10 9 10 11 10 10 6 4 7 4 7 10 21 14 15 20 20 20 21 21 20 20 19 16 14 11 11 11 11 10 10 9 10 10
6 8 10 11 9 9 10 11 12 13 12 14 14 14 14 16 17 18 16 10 7 12 13 17 19 22 21 20 22 23 23 23 22 18 15 14 13 13 13 13 12 11 11
7 8 10 11 11 11 12 14 15 15 15 17 18 19 20 21 20 22 19 10 5 6 13 23 19 21 22 22 22 23 24 24 23 21 19 17 16 16 16 15 15 14 13
8 9 9 9 10 11 13 14 16 17 17 19 21 21 22 23 24 24 24 24 16 4 4 15 18 16 23 23 23 24 26 27 27 26 21 20 20 20 19 18 17 16 16
8 9 9 9 10 11 13 14 16 18 19 20 21 23 25 25 26 26 26 27 27 22 8 18 24 24 22 25 25 26 27 28 29 25 24 24 24 23 22 21 20 18 18
6 7 7 8 9 11 12 14 16 18 21 23 23 24 28 26 28 29 28 29 31 32 18 29 30 33 34 31 29 30 30 31 32 31 31 28 27 25 24 23 22 21 20
3 4 6 8 8 9 11 13 15 16 19 22 23 23 27 26 28 30 31 33 34 34 29 28 29 30 34 36 38 37 37 36 36 36 33 30 28 27 26 25 24 23 22
3 4 6 8 10 12 13 14 16 18 19 21 23 25 27 26 27 28 29 31 33 34 31 30 34 30 31 31 36 38 39 40 40 38 36 31 29 29 28 28 27 26 24
5 7 9 11 12 13 14 16 16 17 21 25 26 26 27 28 29 30 31 30 28 29 31 30 32 31 28 27 31 30 32 36 42 39 37 38 38 36 33 30 29 28 28
8 9 12 13 13 14 16 15 18 21 24 26 26 26 26 26 27 28 30 29 29 30 26 24 24 26 25 23 22 28 30 30 33 35 38 39 37 36 34 28 27 28 28
9 11 13 14 16 17 18 19 20 22 24 25 27 28 27 26 27 26 27 28 29 29 27 25 27 26 28 28 28 29 31 27 14 25 34 34 34 36 37 35 30 27 26
12 13 14 16 18 21 22 22 22 23 25 25 25 27 28 26 26 28 29 29 27 26 26 30 32 32 33 32 31 31 28 30 32 31 22 24 27 34 37 33 29 25 22
14 16 17 19 21 23 23 23 25 26 26 27 26 26 28 29 27 27 30 32 32 29 29 29 29 35 33 34 33 35 36 35 32 31 28 23 27 31 35 33 30 26 24
17 19 20 22 24 25 23 24 26 27 29 30 30 26 26 28 30 25 25 28 30 29 26 27 30 33 36 37 38 37 33 26 18 26 30 30 27 27 29 32 30 26 25
19 21 24 24 25 26 25 25 28 30 29 30 28 27 25 24 24 24 25 25 27 31 30 31 32 34 34 35 35 37 37 29 26 16 27 25 29 19 6 27 30 29 26
Wind_Direction
54 61 44 44 27 36 23 17 16 35 29 29 76 71 64 53 60 57 58 40 47 57 49 41 46 40 35 46 49 41 32 27 22 36 43 29 24 32 29 25 23 21 11
68 45 60 48 35 32 40 17 21 36 57 36 25 25 68 75 73 53 75 14 45 49 56 54 55 50 47 34 24 31 26 27 31 23 23 28 3 21 24 20 22 16 5
74 64 32 13 43 29 62 26 61 40 343 335 52 61 86 72 108 31 54 52 14 3 16 42 46 45 45 47 44 38 35 31 27 14 2 8 345 7 9 358 359 12 19
92 72 41 13 35 38 31 52 29 38 2 20 81 145 165 227 183 117 127 167 235 328 342 354 2 17 43 47 44 36 28 27 26 22 17 13 15 9 8 14 20 20 24
106 69 98 29 27 26 30 45 17 23 23 36 276 253 200 256 206 232 251 273 295 283 318 340 0 11 16 44 44 39 32 27 23 19 15 15 13 14 13 11 14 7 11
107 111 26 17 44 9 24 38 11 6 352 340 299 267 274 217 244 227 246 279 283 297 296 320 335 335 339 334 329 28 32 22 18 16 15 11 6 4 7 5 352 355 8
111 116 86 342 12 12 14 14 360 347 339 319 304 294 245 237 230 237 250 246 266 285 282 282 273 270 291 306 299 293 284 359 357 360 360 356 350 341 340 347 357 343 333
144 102 200 323 340 25 355 2 7 352 320 347 344 314 322 221 233 240 235 236 244 263 279 282 277 272 267 264 280 291 282 288 332 338 339 338 334 322 321 322 334 341 335
268 235 258 267 303 349 344 352 350 355 333 345 357 345 352 305 322 222 229 244 252 260 275 276 287 284 278 261 263 271 275 281 281 312 317 319 319 314 307 312 316 324 331
266 273 266 276 285 298 298 304 305 303 301 301 320 263 267 271 278 322 251 251 253 251 263 264 271 278 279 273 260 261 271 274 276 297 304 304 307 303 294 300 303 308 321
291 279 276 271 275 279 283 285 280 286 278 283 269 283 275 263 250 229 283 300 280 263 279 267 266 270 270 273 268 265 267 267 266 275 286 289 291 291 286 292 296 294 303
279 295 284 272 264 267 272 281 282 279 279 275 273 269 263 268 283 254 265 269 272 288 277 268 272 274 272 259 264 265 258 260 263 268 274 280 279 277 276 277 282 284 289
272 272 277 278 279 281 281 277 274 276 278 277 276 272 267 264 266 269 273 277 264 285 281 277 261 272 272 265 261 261 262 263 265 260 264 271 273 272 272 272 273 276 273
269 268 265 270 278 275 271 277 280 280 280 276 274 272 273 269 267 268 263 265 295 266 273 268 275 270 260 261 264 261 262 262 263 259 259 261 265 266 266 266 266 267 266
276 277 277 280 283 280 280 279 280 283 285 284 284 284 280 280 275 272 268 262 247 282 283 280 274 280 253 251 258 260 264 263 264 263 254 259 263 265 263 262 262 260 261
284 286 299 305 303 299 295 289 287 290 288 288 285 281 277 278 279 275 267 263 256 248 265 274 273 274 277 264 258 258 263 268 266 257 256 259 262 262 259 259 259 257 255
282 289 294 293 295 294 293 292 291 292 288 288 285 281 279 276 273 272 267 264 259 254 256 271 271 276 271 265 267 265 261 265 265 265 265 261 259 257 255 256 256 253 252
298 316 319 322 318 308 300 294 293 292 291 291 292 289 287 287 282 276 268 264 261 258 253 267 270 268 266 267 266 265 261 261 265 269 266 262 254 254 254 253 253 251 249
330 335 323 315 314 315 313 308 303 300 299 299 299 296 292 289 285 283 278 270 263 259 255 257 269 269 266 266 267 265 262 260 259 263 263 254 251 251 251 252 252 250 247
340 335 330 327 326 320 311 307 301 298 298 299 298 295 294 291 287 286 283 279 278 272 262 256 264 269 267 266 261 259 262 257 256 255 252 255 261 257 251 249 250 248 247
349 336 329 327 319 314 315 308 304 305 306 305 304 302 299 294 292 291 286 281 280 277 275 275 272 273 269 266 255 262 260 263 259 254 255 257 253 251 247 244 248 246 245
336 326 323 317 315 316 314 309 309 309 309 307 306 307 305 304 300 296 293 289 286 279 274 272 276 277 281 278 272 264 259 260 262 257 245 246 244 246 251 252 255 250 247
322 320 317 313 311 312 315 315 313 310 310 308 306 303 301 298 298 298 298 296 292 289 287 284 277 280 283 280 281 281 268 258 257 256 256 246 237 235 246 249 247 240 237
315 313 313 312 309 313 318 316 315 312 312 312 307 303 298 299 299 300 299 297 297 297 295 289 283 285 285 288 283 277 275 274 269 262 245 247 241 233 238 240 239 234 234
308 311 312 313 314 314 317 317 316 310 308 308 309 304 299 299 299 301 301 303 303 298 295 292 289 288 287 288 285 284 273 267 259 251 235 237 245 237 230 233 235 231 230
309 313 314 315 313 307 310 306 304 304 300 301 301 298 297 297 299 300 302 302 298 295 298 296 292 286 283 285 284 280 273 266 263 263 244 226 233 219 219 229 229 235 224